Pat Luke — WDH2891 — position and weather

sailwx.info

Track history (hours):
 
Tides and Currents Weather Stations Pressure Air Temp Water Temp Dewpoint Dewpoint Depression Visibility Wind Speed Wind Dir Waves Ship Positions

Pat Luke

Owner: Al Cenac LLC, Houma, LA. More information available from US FCC via Universal Licensing System and Coast Guard Vessel Documentation Center.

Last reported at 2018-Jun-20 07:55 UTC. Time now 2018-Jun-20 09:11 UTC.
Position N 32°54' W 091°04'.

Length 10 m; draft 1 m.

Type: Tug. MMSI: 367602270.

Date/timePositionNaut miles runAvg speedWind from/ knotsBaromVisibWave heightAir tempDewpointWater temp
2018-Jun-20 07:55N 32°54' W 091°04'10 1.5
2018-Jun-20 01:39N 32°46' W 091°09'0 2.4
2018-Jun-20 01:30N 32°45' W 091°09'1 2.2
2018-Jun-20 01:00N 32°44' W 091°09'7 1.4
2018-Jun-19 19:41N 32°37' W 091°09'1 3.0
2018-Jun-19 19:30N 32°37' W 091°09'1 2.7
2018-Jun-19 19:00N 32°36' W 091°08'1 2.7
2018-Jun-19 18:30N 32°35' W 091°07'1 2.6
2018-Jun-19 18:00N 32°33' W 091°06'1 2.5
2018-Jun-19 17:30N 32°32' W 091°06'2 3.3
2018-Jun-19 16:47N 32°30' W 091°07'1 3.2
2018-Jun-19 16:30N 32°29' W 091°07'1 2.4
2018-Jun-19 16:00N 32°28' W 091°06'1 2.2
2018-Jun-19 15:30N 32°27' W 091°05'1 2.6
2018-Jun-19 15:00N 32°27' W 091°04'1 2.8
2018-Jun-19 14:30N 32°26' W 091°03'2 3.0
2018-Jun-19 14:00N 32°26' W 091°01'1 2.4
2018-Jun-19 13:30N 32°25' W 090°60'1 2.2
2018-Jun-19 13:00N 32°24' W 090°59'1 2.3
2018-Jun-19 12:30N 32°23' W 091°00'1 2.1
2018-Jun-19 12:00N 32°22' W 091°00'1 2.7
2018-Jun-19 11:30N 32°21' W 090°59'1 1.8
2018-Jun-19 11:00N 32°21' W 090°58'1 1.6
2018-Jun-19 10:30N 32°21' W 090°57'1 2.8
2018-Jun-19 10:00N 32°21' W 090°55'1 3.0
2018-Jun-19 09:30N 32°19' W 090°54'1 2.5
2018-Jun-19 09:00N 32°18' W 090°55'2 3.2
2018-Jun-19 08:30N 32°17' W 090°56'1 2.8
2018-Jun-19 08:00N 32°16' W 090°58'1 2.3
2018-Jun-19 07:30N 32°15' W 090°58'1 2.7
2018-Jun-19 07:00N 32°14' W 090°59'2 3.4
2018-Jun-19 06:30N 32°12' W 090°59'1 2.4
2018-Jun-19 06:00N 32°11' W 090°60'1 2.4
2018-Jun-19 05:30N 32°10' W 090°60'1 2.5
2018-Jun-19 05:00N 32°09' W 091°00'1 2.1
2018-Jun-19 04:30N 32°08' W 091°01'1 2.4
2018-Jun-19 03:58N 32°07' W 091°02'3 2.2
2018-Jun-19 02:38N 32°08' W 091°06'0 3.1
2018-Jun-19 02:30N 32°08' W 091°06'1 2.1
2018-Jun-19 02:00N 32°07' W 091°06'4 2.3
2018-Jun-19 00:10N 32°03' W 091°03'0 2.3
2018-Jun-18 23:58N 32°03' W 091°03'  
Track history (hours):
 
Tides and Currents Weather Stations Pressure Air Temp Water Temp Dewpoint Dewpoint Depression Visibility Wind Speed Wind Dir Waves Ship Positions

Pat Luke

Owner: Al Cenac LLC, Houma, LA. More information available from US FCC via Universal Licensing System and Coast Guard Vessel Documentation Center.

Last reported at 2018-Jun-20 07:55 UTC. Time now 2018-Jun-20 09:11 UTC.
Position N 32°54' W 091°04'.

Length 10 m; draft 1 m.

Type: Tug. MMSI: 367602270.

Date/timePositionNaut miles runAvg speedWind from/ knotsBaromVisibWave heightAir tempDewpointWater temp
2018-Jun-20 07:55N 32°54' W 091°04'10 1.5
2018-Jun-20 01:39N 32°46' W 091°09'0 2.4
2018-Jun-20 01:30N 32°45' W 091°09'1 2.2
2018-Jun-20 01:00N 32°44' W 091°09'7 1.4
2018-Jun-19 19:41N 32°37' W 091°09'1 3.0
2018-Jun-19 19:30N 32°37' W 091°09'1 2.7
2018-Jun-19 19:00N 32°36' W 091°08'1 2.7
2018-Jun-19 18:30N 32°35' W 091°07'1 2.6
2018-Jun-19 18:00N 32°33' W 091°06'1 2.5
2018-Jun-19 17:30N 32°32' W 091°06'2 3.3
2018-Jun-19 16:47N 32°30' W 091°07'1 3.2
2018-Jun-19 16:30N 32°29' W 091°07'1 2.4
2018-Jun-19 16:00N 32°28' W 091°06'1 2.2
2018-Jun-19 15:30N 32°27' W 091°05'1 2.6
2018-Jun-19 15:00N 32°27' W 091°04'1 2.8
2018-Jun-19 14:30N 32°26' W 091°03'2 3.0
2018-Jun-19 14:00N 32°26' W 091°01'1 2.4
2018-Jun-19 13:30N 32°25' W 090°60'1 2.2
2018-Jun-19 13:00N 32°24' W 090°59'1 2.3
2018-Jun-19 12:30N 32°23' W 091°00'1 2.1
2018-Jun-19 12:00N 32°22' W 091°00'1 2.7
2018-Jun-19 11:30N 32°21' W 090°59'1 1.8
2018-Jun-19 11:00N 32°21' W 090°58'1 1.6
2018-Jun-19 10:30N 32°21' W 090°57'1 2.8
2018-Jun-19 10:00N 32°21' W 090°55'1 3.0
2018-Jun-19 09:30N 32°19' W 090°54'1 2.5
2018-Jun-19 09:00N 32°18' W 090°55'2 3.2
2018-Jun-19 08:30N 32°17' W 090°56'1 2.8
2018-Jun-19 08:00N 32°16' W 090°58'1 2.3
2018-Jun-19 07:30N 32°15' W 090°58'1 2.7
2018-Jun-19 07:00N 32°14' W 090°59'2 3.4
2018-Jun-19 06:30N 32°12' W 090°59'1 2.4
2018-Jun-19 06:00N 32°11' W 090°60'1 2.4
2018-Jun-19 05:30N 32°10' W 090°60'1 2.5
2018-Jun-19 05:00N 32°09' W 091°00'1 2.1
2018-Jun-19 04:30N 32°08' W 091°01'1 2.4
2018-Jun-19 03:58N 32°07' W 091°02'3 2.2
2018-Jun-19 02:38N 32°08' W 091°06'0 3.1
2018-Jun-19 02:30N 32°08' W 091°06'1 2.1
2018-Jun-19 02:00N 32°07' W 091°06'4 2.3
2018-Jun-19 00:10N 32°03' W 091°03'0 2.3
2018-Jun-18 23:58N 32°03' W 091°03'  

Dump ship's entire track history